| time (UTC) | temp F | wind direction | speed MPH | gust MPH | rain 1hr in | rain 24hr in | rain mn in | humidity % | barometer mb |
| 20260504004004 | 55 | 260 | 0.0 | 0.0 | 0.00 | 0.00 | 0.00 | 38 | 1015.5 |
| 20260504003005 | 56 | 260 | 0.0 | 0.0 | 0.00 | 0.00 | 0.00 | 36 | 1015.3 |
| 20260504002004 | 57 | 262 | 0.0 | 2.0 | 0.00 | 0.00 | 0.00 | 34 | 1015.2 |
| 20260504001004 | 57 | 261 | 0.0 | 1.0 | 0.00 | 0.00 | 0.00 | 32 | 1015.1 |
| 20260504000004 | 58 | 261 | 0.0 | 1.0 | 0.00 | 0.00 | 0.00 | 32 | 1015.0 |
| 20260503235005 | 59 | 262 | 1.0 | 4.0 | 0.00 | 0.00 | 0.00 | 29 | 1014.9 |
| 20260503233005 | 60 | 117 | 0.0 | 7.0 | 0.00 | 0.00 | 0.00 | 25 | 1015.0 |
| 20260503232004 | 60 | 248 | 0.0 | 7.0 | 0.00 | 0.00 | 0.00 | 23 | 1015.0 |
| 20260503231005 | 60 | 251 | 2.0 | 5.0 | 0.00 | 0.00 | 0.00 | 23 | 1014.9 |
| 20260503230003 | 60 | 219 | 0.0 | 4.0 | 0.00 | 0.00 | 0.00 | 22 | 1014.7 |
| 20260503225003 | 60 | 5 | 0.0 | 9.0 | 0.00 | 0.00 | 0.00 | 23 | 1014.7 |
| 20260503224004 | 60 | 355 | 0.0 | 10.0 | 0.00 | 0.00 | 0.00 | 21 | 1014.8 |
| 20260503223003 | 61 | 263 | 0.0 | 9.0 | 0.00 | 0.00 | 0.00 | 21 | 1014.9 |
| 20260503222004 | 61 | 217 | 4.0 | 6.0 | 0.00 | 0.00 | 0.00 | 21 | 1014.8 |
| 20260503221004 | 61 | 241 | 6.0 | 9.0 | 0.00 | 0.00 | 0.00 | 20 | 1014.8 |
| 20260503220005 | 61 | 319 | 4.0 | 9.0 | 0.00 | 0.00 | 0.00 | 22 | 1014.8 |
| 20260503215005 | 61 | 248 | 1.0 | 7.0 | 0.00 | 0.00 | 0.00 | 21 | 1014.9 |
| 20260503213004 | 62 | 116 | 4.0 | 7.0 | 0.00 | 0.00 | 0.00 | 20 | 1014.8 |
| 20260503205004 | 62 | 266 | 2.0 | 10.0 | 0.00 | 0.00 | 0.00 | 21 | 1014.8 |
| 20260503202004 | 62 | 71 | 5.0 | 12.0 | 0.00 | 0.00 | 0.00 | 21 | 1015.0 |
| 20260503201003 | 62 | 84 | 5.0 | 20.0 | 0.00 | 0.00 | 0.00 | 21 | 1015.1 |
| 20260503195005 | 61 | 60 | 2.0 | 9.0 | 0.00 | 0.00 | 0.00 | 23 | 1015.2 |
| 20260503194005 | 61 | 334 | 0.0 | 11.0 | 0.00 | 0.00 | 0.00 | 24 | 1015.2 |
| 20260503193004 | 60 | 55 | 6.0 | 9.0 | 0.00 | 0.00 | 0.00 | 24 | 1015.3 |
| 20260503192005 | 61 | 47 | 4.0 | 18.0 | 0.00 | 0.00 | 0.00 | 24 | 1015.5 |
| 20260503190005 | 60 | 117 | 4.0 | 8.0 | 0.00 | 0.00 | 0.00 | 23 | 1015.5 |
| 20260503185005 | 60 | 209 | 9.0 | 12.0 | 0.00 | 0.00 | 0.00 | 23 | 1015.8 |
| 20260503184003 | 61 | 72 | 4.0 | 12.0 | 0.00 | 0.00 | 0.00 | 23 | 1015.8 |
| 20260503183005 | 60 | 286 | 8.0 | 12.0 | 0.00 | 0.00 | 0.00 | 25 | 1015.9 |
| 20260503182006 | 61 | 57 | 4.0 | 13.0 | 0.00 | 0.00 | 0.00 | 21 | 1015.8 |
| 20260503181004 | 60 | 254 | 4.0 | 13.0 | 0.00 | 0.00 | 0.00 | 23 | 1015.9 |
| 20260503180004 | 60 | 46 | 6.0 | 11.0 | 0.00 | 0.00 | 0.00 | 24 | 1016.0 |
| 20260503175004 | 60 | 67 | 4.0 | 10.0 | 0.00 | 0.00 | 0.00 | 24 | 1016.0 |
| 20260503174004 | 59 | 53 | 3.0 | 8.0 | 0.00 | 0.00 | 0.00 | 22 | 1016.1 |
| 20260503173004 | 58 | 340 | 1.0 | 16.0 | 0.00 | 0.00 | 0.00 | 23 | 1016.1 |
| 20260503172004 | 58 | 60 | 5.0 | 7.0 | 0.00 | 0.00 | 0.00 | 26 | 1016.1 |
| 20260503171004 | 57 | 56 | 5.0 | 12.0 | 0.00 | 0.00 | 0.00 | 26 | 1016.2 |
| 20260503131005 | 47 | 64 | 5.0 | 7.0 | 0.00 | 0.00 | 0.00 | 45 | 1016.5 |
| 20260503081003 | 44 | 28 | 0.0 | 4.0 | 0.00 | 0.00 | 0.00 | 56 | 1013.8 |
| 20260503055004 | 48 | 329 | 0.0 | 3.0 | 0.00 | 0.00 | 0.00 | 49 | 1013.5 |
| 20260503054003 | 48 | 34 | 1.0 | 2.0 | 0.00 | 0.00 | 0.00 | 49 | 1013.7 |
| 20260503051004 | 49 | 32 | 1.0 | 2.0 | 0.00 | 0.00 | 0.00 | 46 | 1013.8 |
| 20260503050005 | 49 | 32 | 0.0 | 4.0 | 0.00 | 0.00 | 0.00 | 46 | 1013.8 |
| 20260503045004 | 50 | 106 | 1.0 | 6.0 | 0.00 | 0.00 | 0.00 | 45 | 1013.9 |
| 20260503044005 | 50 | 44 | 1.0 | 5.0 | 0.00 | 0.00 | 0.00 | 45 | 1014.1 |
| 20260503043004 | 50 | 217 | 0.0 | 8.0 | 0.00 | 0.00 | 0.00 | 45 | 1014.1 |
| 20260503042004 | 50 | 5 | 0.0 | 5.0 | 0.00 | 0.00 | 0.00 | 44 | 1014.1 |
| 20260503041003 | 50 | 53 | 1.0 | 2.0 | 0.00 | 0.00 | 0.00 | 45 | 1014.1 |
| 20260503040003 | 50 | 44 | 0.0 | 7.0 | 0.00 | 0.00 | 0.00 | 45 | 1014.2 |
| 20260503035003 | 51 | 171 | 1.0 | 2.0 | 0.00 | 0.00 | 0.00 | 44 | 1014.3 |
| 20260503034004 | 51 | 61 | 0.0 | 6.0 | 0.00 | 0.00 | 0.00 | 44 | 1014.3 |
| 20260503033003 | 51 | 136 | 1.0 | 4.0 | 0.00 | 0.00 | 0.00 | 45 | 1014.3 |
| 20260503031003 | 51 | 323 | 0.0 | 4.0 | 0.00 | 0.00 | 0.00 | 44 | 1014.4 |
| 20260503030004 | 51 | 338 | 1.0 | 2.0 | 0.00 | 0.00 | 0.00 | 44 | 1014.4 |
| 20260503025003 | 51 | 253 | 0.0 | 2.0 | 0.00 | 0.00 | 0.00 | 44 | 1014.4 |
| 20260503024004 | 51 | 254 | 0.0 | 1.0 | 0.00 | 0.00 | 0.00 | 43 | 1014.4 |
| 20260503023003 | 52 | 250 | 0.0 | 0.0 | 0.00 | 0.00 | 0.00 | 42 | 1014.5 |
| 20260503022004 | 52 | 250 | 0.0 | 0.0 | 0.00 | 0.00 | 0.00 | 42 | 1014.4 |
| 20260503021004 | 52 | 250 | 0.0 | 0.0 | 0.00 | 0.00 | 0.00 | 41 | 1014.4 |
| 20260503020003 | 52 | 250 | 0.0 | 0.0 | 0.00 | 0.00 | 0.00 | 39 | 1014.7 |
| 20260503015003 | 53 | 250 | 0.0 | 0.0 | 0.00 | 0.00 | 0.00 | 39 | 1014.5 |
| 20260503014004 | 53 | 250 | 0.0 | 0.0 | 0.00 | 0.00 | 0.00 | 38 | 1014.3 |
| 20260503013004 | 53 | 250 | 0.0 | 0.0 | 0.00 | 0.00 | 0.00 | 39 | 1014.3 |
| 20260503012004 | 54 | 244 | 0.0 | 1.0 | 0.00 | 0.00 | 0.00 | 38 | 1014.3 |
| 20260503011004 | 54 | 244 | 0.0 | 4.0 | 0.00 | 0.00 | 0.00 | 37 | 1014.1 |
| 20260503010003 | 54 | 251 | 0.0 | 0.0 | 0.00 | 0.00 | 0.00 | 37 | 1013.9 |
| 20260503005005 | 54 | 251 | 0.0 | 1.0 | 0.00 | 0.00 | 0.00 | 38 | 1013.7 |